FW8528 Weather Reports


Display with metric or nautical units.
time (UTC)temp
F
wind
direction
speed
MPH
gust
MPH
rain 1hr
in
rain 24hr
in
rain mn
in
humidity
%
barometer
mb
20260508175301 54 194 3.0 7.0 0.00 0.00 0.00 74 1018.9
20260508174759 54 227 0.0 0.0 0.00 0.00 0.00 75 1018.9
20260508174256 54 268 1.0 1.0 0.00 0.00 0.00 74 1018.6
20260508173752 54 129 0.0 0.0 0.00 0.00 0.00 77 1018.6
20260508173249 54 298 0.0 1.0 0.00 0.00 0.00 77 1018.9
20260508172745 53 15 1.0 1.0 0.00 0.00 0.00 75 1018.2
20260508172242 53 12 1.0 2.0 0.00 0.00 0.00 75 1018.6
20260508171739 54 343 1.0 1.0 0.00 0.00 0.00 75 1018.2
20260508171235 53 268 0.0 0.0 0.00 0.00 0.00 78 1018.2
20260508170732 53 320 1.0 2.0 0.00 0.00 0.00 76 1017.9
20260508170230 52 255 0.0 0.0 0.00 0.00 0.00 81 1018.2
20260508165726 53 323 1.0 1.0 0.00 0.00 0.00 78 1018.6
20260508165224 53 132 1.0 1.0 0.00 0.00 0.00 79 1018.6
20260508164720 53 350 1.0 2.0 0.00 0.00 0.00 80 1018.6
20260508164216 53 284 0.0 0.0 0.00 0.00 0.00 82 1018.6
20260508163714 53 258 0.0 0.0 0.00 0.00 0.00 82 1018.2
20260508163212 52 282 0.0 0.0 0.00 0.00 0.00 85 1018.6
20260508162707 52 245 0.0 0.0 0.00 0.00 0.00 84 1018.2
20260508162205 52 227 0.0 0.0 0.00 0.00 0.00 85 1018.2
20260508161702 52 164 1.0 1.0 0.00 0.00 0.00 84 1017.9
20260508161159 52 191 0.0 1.0 0.00 0.00 0.00 85 1017.9
20260508160657 51 267 0.0 0.0 0.00 0.00 0.00 87 1017.9
20260508160155 51 274 1.0 2.0 0.00 0.00 0.00 87 1018.2
20260508155651 51 228 0.0 0.0 0.00 0.00 0.00 87 1017.9
20260508155148 51 205 0.0 1.0 0.00 0.00 0.00 87 1018.2
20260508154645 51 264 0.0 0.0 0.00 0.00 0.00 87 1017.9
20260508154142 51 217 0.0 0.0 0.00 0.00 0.00 89 1017.9
20260508153639 51 296 1.0 1.0 0.00 0.00 0.00 89 1017.6
20260508153136 51 241 0.0 0.0 0.00 0.00 0.00 90 1017.6
20260508152632 51 261 0.0 0.0 0.00 0.00 0.00 91 1017.6
20260508152127 51 202 1.0 1.0 0.00 0.00 0.00 91 1017.6
20260508151625 50 242 0.0 0.0 0.00 0.00 0.00 92 1017.6
20260508151121 50 216 0.0 0.0 0.00 0.00 0.00 92 1017.6
20260508150618 50 250 0.0 0.0 0.00 0.00 0.00 93 1017.6
20260508150115 50 227 0.0 1.0 0.00 0.00 0.00 92 1017.2
20260508145611 50 270 0.0 0.0 0.00 0.00 0.00 93 1017.6
20260508145108 50 248 0.0 0.0 0.00 0.00 0.00 93 1017.2
20260508144606 50 248 0.0 0.0 0.00 0.00 0.00 93 1017.2
20260508144102 49 277 0.0 0.0 0.00 0.00 0.00 92 1017.2
20260508143600 49 292 0.0 0.0 0.00 0.00 0.00 92 1017.2
20260508143056 48 297 0.0 0.0 0.00 0.00 0.00 94 1017.2
20260508142553 48 272 0.0 0.0 0.00 0.00 0.00 96 1017.2
20260508142050 48 247 0.0 0.0 0.00 0.00 0.00 97 1016.9
20260508141546 47 143 1.0 2.0 0.00 0.00 0.00 98 1016.9
20260508141044 47 228 0.0 0.0 0.00 0.00 0.00 99 1017.2
20260508140541 46 269 0.0 0.0 0.00 0.00 0.00 99 1017.2
20260508140037 46 238 0.0 0.0 0.00 0.00 0.00 99 1017.2
20260508135533 46 157 1.0 2.0 0.00 0.00 0.00 99 1016.9
20260508135030 45 281 0.0 0.0 0.00 0.00 0.00 99 1016.9
20260508134526 45 145 2.0 2.0 0.00 0.00 0.00 99 1016.6
20260508134024 45 271 0.0 0.0 0.00 0.00 0.00 99 1016.2
20260508133520 45 222 0.0 0.0 0.00 0.00 0.00 99 1016.6
20260508133018 45 135 2.0 2.0 0.00 0.00 0.00 99 1016.2
20260508132516 46 247 0.0 0.0 0.00 0.00 0.00 98 1016.6
20260508132012 46 164 2.0 3.0 0.00 0.00 0.00 98 1016.6
20260508131507 46 131 2.0 2.0 0.00 0.00 0.00 99 1016.6
20260508131004 46 281 0.0 0.0 0.00 0.00 0.00 98 1016.6
20260508130501 46 242 0.0 0.0 0.00 0.00 0.00 99 1016.2
20260508125956 46 241 0.0 1.0 0.00 0.00 0.00 99 1016.2
20260508125453 46 212 0.0 0.0 0.00 0.00 0.00 99 1016.2
20260508124951 46 190 1.0 1.0 0.00 0.00 0.00 99 1016.2
20260508124448 46 267 0.0 0.0 0.00 0.00 0.00 99 1016.2
20260508123946 46 145 2.0 2.0 0.00 0.00 0.00 99 1016.2
20260508123445 46 190 0.0 1.0 0.00 0.00 0.00 99 1016.2
20260508122940 46 222 0.0 0.0 0.00 0.00 0.00 99 1015.8
20260508122438 46 245 0.0 0.0 0.00 0.00 0.00 99 1016.2
20260508121934 46 136 2.0 2.0 0.00 0.00 0.00 99 1016.6
20260508121433 46 222 0.0 0.0 0.00 0.00 0.00 99 1015.8
20260508120930 46 237 0.0 0.0 0.00 0.00 0.00 99 1016.2
20260508120428 46 234 0.0 0.0 0.00 0.00 0.00 99 1016.6
20260508115925 46 275 0.0 0.0 0.00 0.00 0.00 99 1016.6
20260508115423 46 271 0.0 0.0 0.00 0.00 0.00 99 1016.6
20260508114919 46 271 0.0 0.0 0.00 0.00 0.00 99 1016.6
20260508114416 46 208 0.0 0.0 0.00 0.00 0.00 99 1016.2
20260508113913 46 194 0.0 1.0 0.00 0.00 0.00 99 1016.2
20260508113411 46 228 0.0 0.0 0.00 0.00 0.00 99 1016.6
20260508112908 46 188 1.0 1.0 0.00 0.00 0.00 99 1016.2
20260508112404 47 193 1.0 1.0 0.00 0.00 0.00 99 1016.2
20260508111901 47 228 0.0 0.0 0.00 0.00 0.00 99 1016.2
20260508111358 47 175 1.0 1.0 0.00 0.00 0.00 99 1015.8
20260508110855 47 180 1.0 2.0 0.00 0.00 0.00 99 1015.8
20260508110353 47 273 0.0 0.0 0.00 0.00 0.00 99 1016.2
20260508105852 47 273 0.0 0.0 0.00 0.00 0.00 99 1016.2
20260508105349 47 273 0.0 0.0 0.00 0.00 0.00 99 1016.2
20260508104846 47 273 0.0 0.0 0.00 0.00 0.00 99 1015.8
20260508104343 47 273 0.0 0.0 0.00 0.00 0.00 99 1015.8
20260508103841 47 272 0.0 0.0 0.00 0.00 0.00 99 1015.8
20260508103337 47 272 0.0 0.0 0.00 0.00 0.00 99 1015.8
20260508102835 47 272 0.0 0.0 0.00 0.00 0.00 99 1015.8
20260508102333 48 272 0.0 0.0 0.00 0.00 0.00 99 1016.2
20260508101830 48 272 0.0 0.0 0.00 0.00 0.00 99 1015.8
20260508101327 48 272 0.0 0.0 0.00 0.00 0.00 99 1015.8
20260508100825 48 272 0.0 0.0 0.00 0.00 0.00 99 1015.8
20260508100323 48 272 0.0 0.0 0.00 0.00 0.00 99 1015.8
20260508095818 48 272 0.0 0.0 0.00 0.00 0.00 99 1015.8
20260508095317 48 272 0.0 0.0 0.00 0.00 0.00 99 1015.8
20260508094813 48 272 0.0 0.0 0.00 0.00 0.00 99 1015.8
20260508094310 48 272 0.0 0.0 0.00 0.00 0.00 99 1016.2
20260508093807 48 272 0.0 0.0 0.00 0.00 0.00 99 1015.8
20260508093305 48 272 0.0 0.0 0.00 0.00 0.00 99 1015.8
20260508092802 48 272 0.0 0.0 0.00 0.00 0.00 99 1015.8
20260508092259 48 272 0.0 0.0 0.00 0.00 0.00 99 1015.8
20260508091757 48 272 0.0 0.0 0.00 0.00 0.00 99 1015.8
20260508091254 48 272 0.0 0.0 0.00 0.00 0.00 99 1015.8
20260508090752 48 272 0.0 0.0 0.00 0.00 0.00 99 1015.8
20260508090250 48 272 0.0 0.0 0.00 0.00 0.00 99 1015.8
20260508085745 48 272 0.0 0.0 0.00 0.00 0.00 99 1015.8
20260508085242 48 272 0.0 0.0 0.00 0.00 0.00 99 1016.2
20260508084738 48 272 0.0 0.0 0.00 0.00 0.00 99 1015.8
20260508084236 48 272 0.0 0.0 0.00 0.00 0.00 99 1016.2
20260508083733 48 272 0.0 0.0 0.00 0.00 0.00 99 1015.8
20260508083230 48 272 0.0 0.0 0.00 0.00 0.00 99 1016.2
20260508082725 48 272 0.0 0.0 0.00 0.00 0.00 99 1015.8
20260508082223 48 272 0.0 0.0 0.00 0.00 0.00 99 1015.8
20260508081720 48 272 0.0 0.0 0.00 0.00 0.00 99 1015.8
20260508081217 48 272 0.0 0.0 0.00 0.00 0.00 99 1016.2
20260508080714 48 272 0.0 0.0 0.00 0.00 0.00 99 1015.8
20260508080212 48 272 0.0 0.0 0.00 0.00 0.00 99 1016.2
20260508075708 48 272 0.0 0.0 0.00 0.00 0.00 99 1015.8
20260508075206 48 272 0.0 0.0 0.00 0.00 0.00 99 1016.2
20260508074703 48 272 0.0 0.0 0.00 0.00 0.00 99 1016.2
20260508074200 48 272 0.0 0.0 0.00 0.00 0.00 99 1016.2
20260508073657 48 272 0.0 0.0 0.00 0.00 0.00 99 1015.8
20260508073155 48 272 0.0 0.0 0.00 0.00 0.00 99 1015.8
20260508072650 48 272 0.0 0.0 0.00 0.00 0.00 99 1016.2
20260508072148 48 272 0.0 0.0 0.00 0.00 0.00 99 1015.8
20260508071645 48 272 0.0 0.0 0.00 0.00 0.00 99 1016.2
20260508071144 48 272 0.0 0.0 0.00 0.00 0.00 99 1016.2
20260508070640 48 272 0.0 0.0 0.00 0.00 0.00 99 1015.8
20260508070139 48 272 0.0 0.0 0.00 0.00 0.00 99 1015.8
20260508065636 48 272 0.0 0.0 0.00 0.00 0.00 99 1016.2
20260508065134 48 272 0.0 0.0 0.00 0.00 0.00 99 1015.8
20260508064631 49 272 0.0 0.0 0.00 0.00 0.00 99 1016.2
20260508064129 49 272 0.0 0.0 0.00 0.00 0.00 99 1016.6
20260508063626 49 272 0.0 0.0 0.00 0.00 0.00 99 1016.2
20260508063124 49 272 0.0 0.0 0.00 0.00 0.00 99 1016.6
20260508062621 49 272 0.0 0.0 0.00 0.00 0.00 99 1016.2
20260508062118 49 272 0.0 0.0 0.00 0.00 0.00 99 1016.2
20260508061615 49 272 0.0 0.0 0.00 0.00 0.00 99 1016.6
20260508061113 49 272 0.0 0.0 0.00 0.00 0.00 99 1016.6
20260508060609 49 272 0.0 0.0 0.00 0.00 0.00 99 1016.2
20260508060107 49 272 0.0 0.0 0.00 0.00 0.00 99 1016.6
20260508055602 49 272 0.0 0.0 0.00 0.00 0.00 99 1016.2
20260508055059 49 272 0.0 0.0 0.00 0.00 0.00 99 1016.2
20260508054556 49 272 0.0 0.0 0.00 0.00 0.00 99 1016.2
20260508054053 49 272 0.0 0.0 0.00 0.00 0.00 99 1016.6
20260508053549 50 272 0.0 0.0 0.00 0.00 0.00 99 1016.6
20260508053048 49 272 0.0 0.0 0.00 0.00 0.00 99 1016.6
20260508052545 50 272 0.0 0.0 0.00 0.00 0.00 99 1016.2
20260508052041 50 272 0.0 0.0 0.00 0.00 0.00 99 1016.9
20260508051538 50 272 0.0 0.0 0.00 0.00 0.00 99 1016.6
20260508051033 50 272 0.0 0.0 0.00 0.00 0.00 98 1016.6
20260508050530 50 272 0.0 0.0 0.00 0.00 0.00 98 1016.6
20260508050027 50 272 0.0 0.0 0.00 0.00 0.00 99 1016.6
20260508045523 50 272 0.0 0.0 0.00 0.00 0.00 98 1016.9
20260508045021 50 272 0.0 0.0 0.00 0.00 0.00 98 1016.9
20260508044518 50 272 0.0 0.0 0.00 0.00 0.00 98 1016.6
20260508044014 51 272 0.0 0.0 0.00 0.00 0.00 97 1016.9
20260508043511 51 272 0.0 0.0 0.00 0.00 0.00 97 1016.9
20260508043008 51 272 0.0 0.0 0.00 0.00 0.00 96 1016.9
20260508042505 51 272 0.0 0.0 0.00 0.00 0.00 96 1016.6
20260508042002 51 272 0.0 0.0 0.00 0.00 0.00 96 1016.9
20260508041458 51 272 0.0 0.0 0.00 0.00 0.00 96 1016.6
20260508040955 52 272 0.0 0.0 0.00 0.00 0.00 96 1016.9
20260508040452 52 272 0.0 0.0 0.00 0.00 0.00 96 1016.9
20260508035950 52 272 0.0 0.0 0.00 0.00 0.00 96 1016.9
20260508035446 52 272 0.0 0.0 0.00 0.00 0.00 96 1016.6
20260508034943 52 272 0.0 0.0 0.00 0.00 0.00 94 1016.6
20260508034441 53 272 0.0 0.0 0.00 0.00 0.00 93 1016.6
20260508033937 53 273 0.0 0.0 0.00 0.00 0.00 92 1016.6
20260508033436 53 273 0.0 0.0 0.00 0.00 0.00 93 1016.6
20260508032932 53 271 0.0 0.0 0.00 0.00 0.00 93 1016.2
20260508032430 54 271 0.0 0.0 0.00 0.00 0.00 91 1016.2
20260508031926 54 271 0.0 0.0 0.00 0.00 0.00 90 1015.8
20260508031424 55 271 0.0 0.0 0.00 0.00 0.00 90 1016.6
20260508030919 55 271 0.0 0.0 0.00 0.00 0.00 90 1016.6
20260508030417 56 271 0.0 0.0 0.00 0.00 0.00 87 1016.2
20260508025914 56 271 0.0 0.0 0.00 0.00 0.00 87 1016.6
20260508025410 57 271 0.0 0.0 0.00 0.00 0.00 86 1015.8
20260508024907 57 271 0.0 0.0 0.00 0.00 0.00 85 1016.2
20260508024404 57 271 0.0 0.0 0.00 0.00 0.00 84 1016.2
20260508023901 58 272 0.0 0.0 0.00 0.00 0.00 85 1016.6
20260508023357 58 272 0.0 0.0 0.00 0.00 0.00 84 1016.2
20260508022854 58 271 0.0 0.0 0.00 0.00 0.00 84 1016.2
20260508022350 59 271 0.0 0.0 0.00 0.00 0.00 83 1016.6
20260508021847 59 271 0.0 0.0 0.00 0.00 0.00 82 1016.2
20260508021343 59 272 0.0 0.0 0.00 0.00 0.00 81 1015.8
20260508020839 59 272 0.0 0.0 0.00 0.00 0.00 80 1016.6
20260508020337 59 272 0.0 0.0 0.00 0.00 0.00 80 1016.2
20260508015834 60 272 0.0 0.0 0.00 0.00 0.00 80 1016.2
20260508015332 60 272 0.0 0.0 0.00 0.00 0.00 79 1016.6
20260508014828 60 275 1.0 1.0 0.00 0.00 0.00 76 1016.6
20260508014325 60 242 0.0 0.0 0.00 0.00 0.00 74 1016.6
20260508013820 61 253 0.0 0.0 0.00 0.00 0.00 74 1016.9
20260508013317 61 260 0.0 0.0 0.00 0.00 0.00 73 1016.6
20260508012814 62 240 0.0 0.0 0.00 0.00 0.00 73 1016.6
20260508012311 62 197 1.0 1.0 0.00 0.00 0.00 69 1016.6
20260508011809 63 217 1.0 1.0 0.00 0.00 0.00 72 1016.6
20260508011307 63 281 1.0 1.0 0.00 0.00 0.00 68 1016.6
20260508010803 63 210 1.0 1.0 0.00 0.00 0.00 67 1016.9
20260508010302 64 236 0.0 0.0 0.00 0.00 0.00 68 1016.9
20260508005758 64 278 0.0 0.0 0.00 0.00 0.00 67 1016.9
20260508005255 63 236 1.0 1.0 0.00 0.00 0.00 63 1016.9
20260508004750 63 265 0.0 0.0 0.00 0.00 0.00 68 1016.9
20260508004247 63 270 0.0 0.0 0.00 0.00 0.00 68 1016.9
20260508003743 62 272 0.0 0.0 0.00 0.00 0.00 65 1016.9
20260508003241 62 259 0.0 0.0 0.00 0.00 0.00 69 1016.9
20260508002737 62 214 2.0 2.0 0.00 0.00 0.00 65 1016.9
20260508002235 63 211 2.0 2.0 0.00 0.00 0.00 65 1016.9
20260508001731 62 223 0.0 0.0 0.00 0.00 0.00 72 1017.2
20260508001226 63 13 2.0 2.0 0.00 0.00 0.00 65 1016.9
20260508000723 62 149 0.0 1.0 0.00 0.00 0.00 70 1016.9
20260508000220 62 232 1.0 1.0 0.00 0.00 0.00 69 1017.6
20260507235716 62 30 1.0 1.0 0.00 0.00 0.00 67 1017.2
20260507235214 62 264 1.0 1.0 0.00 0.00 0.00 66 1017.2
20260507234711 63 259 1.0 2.0 0.00 0.00 0.00 65 1017.2
20260507234208 62 257 0.0 0.0 0.00 0.00 0.00 67 1017.2
20260507233704 62 140 2.0 2.0 0.00 0.00 0.00 66 1017.6
20260507233202 62 223 0.0 0.0 0.00 0.00 0.00 69 1017.2
20260507232659 62 328 1.0 1.0 0.00 0.00 0.00 65 1017.6
20260507232156 63 112 1.0 1.0 0.00 0.00 0.00 67 1017.6
20260507231652 62 201 1.0 2.0 0.00 0.00 0.00 66 1017.2
20260507231149 61 228 0.0 0.0 0.00 0.00 0.00 69 1017.6
20260507230646 61 274 2.0 2.0 0.00 0.00 0.00 69 1017.9
20260507230143 61 180 1.0 1.0 0.00 0.00 0.00 69 1017.6
20260507225643 63 167 2.0 2.0 0.00 0.00 0.00 66 1017.9
20260507225140 62 226 1.0 1.0 0.00 0.00 0.00 66 1017.9
20260507224635 62 201 0.0 0.0 0.00 0.00 0.00 71 1017.9
20260507224132 61 294 0.0 1.0 0.00 0.00 0.00 72 1017.9
20260507223628 60 156 2.0 2.0 0.00 0.00 0.00 69 1018.2
20260507223125 60 241 0.0 0.0 0.00 0.00 0.00 74 1018.2
20260507222622 60 198 1.0 1.0 0.00 0.00 0.00 74 1018.2
20260507222119 60 153 1.0 1.0 0.00 0.00 0.00 72 1018.6
20260507221614 60 38 0.0 1.0 0.00 0.00 0.00 73 1018.2
20260507221111 60 269 0.0 0.0 0.00 0.00 0.00 75 1018.2
20260507220609 60 226 1.0 1.0 0.00 0.00 0.00 71 1018.6
20260507220106 60 120 1.0 2.0 0.00 0.00 0.00 75 1018.6
20260507215602 59 203 1.0 1.0 0.00 0.00 0.00 74 1018.6
20260507215100 60 166 2.0 2.0 0.00 0.00 0.00 72 1018.2
20260507214557 60 250 1.0 1.0 0.00 0.00 0.00 71 1018.6
20260507214053 60 230 1.0 1.0 0.00 0.00 0.00 70 1018.6
20260507213549 60 311 2.0 3.0 0.00 0.00 0.00 69 1018.6
20260507213047 59 237 0.0 1.0 0.00 0.00 0.00 72 1018.9
20260507212543 59 209 1.0 1.0 0.00 0.00 0.00 72 1018.6
20260507212040 59 225 0.0 1.0 0.00 0.00 0.00 72 1018.6
20260507211536 59 192 2.0 2.0 0.00 0.00 0.00 73 1018.6
20260507211032 59 224 1.0 1.0 0.00 0.00 0.00 72 1018.9
20260507210530 58 246 0.0 0.0 0.00 0.00 0.00 72 1018.6
20260507210026 59 243 0.0 1.0 0.00 0.00 0.00 73 1018.9
20260507205523 59 142 0.0 1.0 0.00 0.00 0.00 76 1018.9
20260507205019 59 254 0.0 0.0 0.00 0.00 0.00 74 1019.3
20260507204516 59 223 1.0 1.0 0.00 0.00 0.00 73 1018.9
20260507204014 58 208 1.0 1.0 0.00 0.00 0.00 76 1019.3
20260507203511 59 277 1.0 2.0 0.00 0.00 0.00 73 1018.9
20260507203009 58 232 1.0 1.0 0.00 0.00 0.00 73 1019.3
20260507202504 58 283 1.0 1.0 0.00 0.00 0.00 73 1019.3
20260507202000 58 204 1.0 2.0 0.00 0.00 0.00 74 1019.3
20260507201456 59 116 1.0 1.0 0.00 0.00 0.00 73 1019.3
20260507200953 59 205 2.0 3.0 0.00 0.00 0.00 73 1019.3
20260507200448 59 282 1.0 1.0 0.00 0.00 0.00 72 1019.3
20260507195944 59 180 2.0 2.0 0.00 0.00 0.00 74 1019.3
20260507195442 60 195 6.0 7.0 0.00 0.00 0.00 70 1019.3
20260507194939 60 283 0.0 1.0 0.00 0.00 0.00 76 1019.3
20260507194435 59 113 1.0 2.0 0.00 0.00 0.00 73 1019.3
20260507193931 59 214 2.0 2.0 0.00 0.00 0.00 72 1019.3
20260507193429 59 87 1.0 1.0 0.00 0.00 0.00 73 1019.3
20260507192925 58 199 1.0 1.0 0.00 0.00 0.00 73 1019.6
20260507192421 58 356 1.0 1.0 0.00 0.00 0.00 75 1019.6
20260507191918 57 192 1.0 1.0 0.00 0.00 0.00 76 1019.3
20260507191415 57 214 1.0 1.0 0.00 0.00 0.00 76 1019.6
20260507190911 58 206 3.0 3.0 0.00 0.00 0.00 75 1019.3
20260507190409 57 234 0.0 1.0 0.00 0.00 0.00 80 1019.6
20260507185908 56 244 0.0 1.0 0.00 0.00 0.00 78 1019.3
20260507185404 57 268 0.0 0.0 0.00 0.00 0.00 79 1019.6
20260507184901 57 178 2.0 2.0 0.00 0.00 0.00 80 1019.3
20260507184400 57 307 0.0 1.0 0.00 0.00 0.00 82 1019.6
20260507183856 57 137 2.0 3.0 0.00 0.00 0.00 81 1019.6
20260507183353 57 198 2.0 5.0 0.00 0.00 0.00 82 1019.3
20260507182851 55 189 0.0 0.0 0.00 0.00 0.00 84 1019.9
20260507182346 55 134 1.0 2.0 0.00 0.00 0.00 85 1019.6
20260507181843 55 234 0.0 0.0 0.00 0.00 0.00 86 1019.6
20260507181338 56 248 0.0 0.0 0.00 0.00 0.00 86 1019.6
20260507180836 55 195 1.0 1.0 0.00 0.00 0.00 85 1019.6
20260507180333 55 244 0.0 0.0 0.00 0.00 0.00 85 1019.6
20260507175828 54 245 0.0 0.0 0.00 0.00 0.00 87 1019.9